When you browse on this site, cookies collect data to enhance your experience and personalize the content and advertising you see.
Visit our Privacy Policy to learn more. By continuing to use the site, you agree to this use of cookies and data.
  • In France
  • List of Countries
  • For 7 days
  • Water Temperature
  • Weather Map
  • Weather Widgets
  • user-avatar
    Login

    Hourly Weather Swolowo

    Today, 21 February, Friday

    Time Temperature Precipitation Wind Pressure Humidity
    00:00 +4°C° 0 mm 8 mps 752 mmHg 80%
    01:00 +4°C° 0 mm 8 mps 751 mmHg 79%
    02:00 +4°C° 0.4 mm 8 mps 750 mmHg 82%
    03:00 +3°C° 0.4 mm 9 mps 749 mmHg 85%
    04:00 +2°C° 0.4 mm 9 mps 748 mmHg 88%
    05:00 +2°C° 1.1 mm 9 mps 749 mmHg 84%
    06:00 +2°C° 1.1 mm 9 mps 750 mmHg 80%
    07:00 +2°C° 1.1 mm 10 mps 751 mmHg 76%
    14:00 +3°C° 0 mm 10 mps 758 mmHg 69%
    15:00 +3°C° 0 mm 10 mps 758 mmHg 70%
    16:00 +3°C° 0 mm 10 mps 759 mmHg 70%
    17:00 +2°C° 0 mm 9 mps 759 mmHg 73%
    18:00 +2°C° 0 mm 8 mps 760 mmHg 75%
    19:00 +2°C° 0 mm 8 mps 761 mmHg 78%
    20:00 +1°C° 0 mm 8 mps 760 mmHg 78%
    21:00 +1°C° 0 mm 8 mps 760 mmHg 79%
    22:00 +1°C° 0 mm 8 mps 760 mmHg 79%
    23:00 +1°C° 0 mm 8 mps 760 mmHg 81%

    Tomorrow, 22 February, Saturday

    Time Temperature Precipitation Wind Pressure Humidity
    00:00 +1°C° 0 mm 8 mps 760 mmHg 82%
    01:00 +1°C° 0 mm 9 mps 760 mmHg 84%
    02:00 +1°C° 0 mm 9 mps 759 mmHg 83%
    03:00 +1°C° 0 mm 9 mps 758 mmHg 83%
    04:00 +2°C° 0 mm 9 mps 758 mmHg 83%
    05:00 +2°C° 0 mm 9 mps 757 mmHg 82%
    06:00 +2°C° 0 mm 10 mps 757 mmHg 81%
    07:00 +2°C° 0 mm 10 mps 756 mmHg 80%
    08:00 +2°C° 0 mm 11 mps 755 mmHg 78%
    09:00 +2°C° 0 mm 11 mps 754 mmHg 77%
    10:00 +2°C° 0 mm 11 mps 753 mmHg 75%
    11:00 +2°C° 0.1 mm 12 mps 752 mmHg 74%
    12:00 +3°C° 0.1 mm 13 mps 751 mmHg 74%
    13:00 +3°C° 0.1 mm 13 mps 750 mmHg 73%
    14:00 +4°C° 0.1 mm 13 mps 750 mmHg 72%
    15:00 +4°C° 0.1 mm 13 mps 749 mmHg 71%
    16:00 +5°C° 0.1 mm 13 mps 748 mmHg 70%
    17:00 +4°C° 0.9 mm 13 mps 749 mmHg 70%
    18:00 +4°C° 0.9 mm 13 mps 749 mmHg 70%
    19:00 +3°C° 0.9 mm 13 mps 749 mmHg 70%
    20:00 +3°C° 0.1 mm 13 mps 749 mmHg 71%
    21:00 +2°C° 0.1 mm 12 mps 750 mmHg 72%
    22:00 +2°C° 0.1 mm 12 mps 750 mmHg 72%
    23:00 +2°C° 0.2 mm 12 mps 750 mmHg 72%

    Day after tomorrow, 23 February, Sunday

    Time Temperature Precipitation Wind Pressure Humidity
    00:00 0°C° 0.2 mm 13 mps 751 mmHg 72%
    01:00 0°C° 0.2 mm 13 mps 751 mmHg 71%
    02:00 0°C° 0.2 mm 13 mps 751 mmHg 71%
    03:00 0°C° 0.2 mm 12 mps 751 mmHg 70%
    04:00 0°C° 0.2 mm 12 mps 751 mmHg 69%
    05:00 0°C° 0.1 mm 12 mps 752 mmHg 69%
    06:00 +1°C° 0.1 mm 11 mps 752 mmHg 70%
    07:00 -1°C° 0.1 mm 11 mps 752 mmHg 71%
    08:00 +1°C° 0.1 mm 11 mps 752 mmHg 70%
    09:00 +1°C° 0.1 mm 11 mps 752 mmHg 69%
    10:00 0°C° 0.1 mm 12 mps 752 mmHg 68%
    11:00 +2°C° 0.2 mm 12 mps 752 mmHg 67%
    12:00 +2°C° 0.2 mm 12 mps 752 mmHg 65%
    13:00 +2°C° 0.2 mm 12 mps 752 mmHg 64%
    14:00 +2°C° 0.1 mm 11 mps 751 mmHg 65%
    15:00 +2°C° 0.1 mm 11 mps 750 mmHg 67%
    16:00 +1°C° 0.1 mm 10 mps 749 mmHg 69%
    17:00 +1°C° 0 mm 9 mps 749 mmHg 72%
    18:00 +1°C° 0 mm 9 mps 749 mmHg 76%
    19:00 +1°C° 0 mm 8 mps 748 mmHg 80%
    20:00 +1°C° 0.2 mm 8 mps 749 mmHg 80%
    21:00 +1°C° 0.2 mm 8 mps 749 mmHg 80%
    22:00 +1°C° 0.2 mm 9 mps 749 mmHg 80%
    23:00 +1°C° 0.1 mm 9 mps 750 mmHg 80%

    24 February, Monday

    Time Temperature Precipitation Wind Pressure Humidity
    00:00 0°C° 0.1 mm 9 mps 750 mmHg 81%
    01:00 0°C° 0.1 mm 10 mps 751 mmHg 81%
    02:00 +1°C° 0.1 mm 9 mps 752 mmHg 81%
    03:00 +1°C° 0.1 mm 9 mps 753 mmHg 81%
    04:00 +2°C° 0.1 mm 8 mps 754 mmHg 81%
    05:00 +2°C° 0.1 mm 7 mps 755 mmHg 82%
    06:00 +1°C° 0.1 mm 5 mps 756 mmHg 83%
    07:00 +2°C° 0.1 mm 3 mps 758 mmHg 84%
    08:00 +3°C° 0 mm 4 mps 758 mmHg 80%
    09:00 +3°C° 0 mm 4 mps 759 mmHg 76%
    10:00 +4°C° 0 mm 4 mps 760 mmHg 71%
    11:00 +5°C° 0 mm 5 mps 760 mmHg 70%
    12:00 +5°C° 0 mm 5 mps 761 mmHg 68%
    13:00 +4°C° 0 mm 6 mps 761 mmHg 66%
    14:00 +4°C° 0 mm 6 mps 761 mmHg 68%
    15:00 +3°C° 0 mm 6 mps 761 mmHg 70%
    16:00 +3°C° 0 mm 6 mps 761 mmHg 72%
    17:00 +2°C° 0 mm 5 mps 760 mmHg 74%
    18:00 +3°C° 0 mm 4 mps 760 mmHg 76%
    19:00 +3°C° 0 mm 4 mps 759 mmHg 78%
    20:00 +2°C° 0 mm 5 mps 758 mmHg 77%
    21:00 +2°C° 0 mm 5 mps 757 mmHg 75%
    22:00 +2°C° 0 mm 6 mps 757 mmHg 74%
    23:00 +2°C° 0.1 mm 7 mps 755 mmHg 75%

    25 February, Tuesday

    Time Temperature Precipitation Wind Pressure Humidity
    00:00 +2°C° 0.1 mm 8 mps 754 mmHg 76%
    01:00 +2°C° 0.1 mm 9 mps 752 mmHg 78%
    02:00 +2°C° 0 mm 9 mps 751 mmHg 79%
    03:00 +3°C° 0 mm 10 mps 750 mmHg 81%
    04:00 +5°C° 0 mm 10 mps 749 mmHg 83%
    05:00 +5°C° 0.6 mm 10 mps 748 mmHg 84%
    06:00 +6°C° 0.6 mm 10 mps 748 mmHg 85%
    07:00 +6°C° 0.6 mm 10 mps 747 mmHg 87%
    08:00 +6°C° 0.4 mm 10 mps 747 mmHg 80%
    09:00 +4°C° 0.4 mm 11 mps 748 mmHg 73%
    10:00 +4°C° 0.4 mm 11 mps 748 mmHg 66%
    11:00 +4°C° 0 mm 11 mps 748 mmHg 65%
    12:00 +4°C° 0 mm 11 mps 749 mmHg 64%
    13:00 +4°C° 0 mm 11 mps 749 mmHg 63%
    14:00 +5°C° 0 mm 10 mps 749 mmHg 63%
    15:00 +3°C° 0 mm 10 mps 749 mmHg 64%
    16:00 +3°C° 0 mm 10 mps 749 mmHg 64%
    17:00 +3°C° 0 mm 9 mps 748 mmHg 65%
    18:00 +2°C° 0 mm 9 mps 748 mmHg 66%
    19:00 +2°C° 0 mm 9 mps 748 mmHg 68%
    20:00 +2°C° 0 mm 9 mps 748 mmHg 69%
    21:00 +1°C° 0 mm 9 mps 748 mmHg 70%
    22:00 +1°C° 0 mm 8 mps 748 mmHg 72%
    23:00 +1°C° 0 mm 8 mps 748 mmHg 74%

    26 February, Wednesday

    Time Temperature Precipitation Wind Pressure Humidity
    00:00 0°C° 0 mm 8 mps 747 mmHg 76%
    01:00 0°C° 0 mm 8 mps 747 mmHg 79%
    02:00 0°C° 0 mm 8 mps 747 mmHg 80%
    03:00 0°C° 0 mm 8 mps 746 mmHg 81%
    04:00 -1°C° 0 mm 8 mps 746 mmHg 82%
    05:00 -1°C° 0 mm 7 mps 746 mmHg 83%
    06:00 -1°C° 0 mm 7 mps 746 mmHg 85%
    07:00 -2°C° 0 mm 7 mps 746 mmHg 86%
    08:00 0°C° 0 mm 7 mps 746 mmHg 81%
    09:00 +2°C° 0 mm 7 mps 746 mmHg 76%
    10:00 +3°C° 0 mm 7 mps 745 mmHg 72%
    11:00 +2°C° 0.1 mm 7 mps 745 mmHg 77%
    12:00 +1°C° 0.1 mm 8 mps 744 mmHg 82%
    13:00 0°C° 0.1 mm 8 mps 744 mmHg 88%
    14:00 0°C° 0.4 mm 9 mps 743 mmHg 90%
    15:00 0°C° 0.4 mm 9 mps 743 mmHg 92%
    16:00 -1°C° 0.4 mm 9 mps 743 mmHg 94%
    17:00 0°C° 0.7 mm 10 mps 743 mmHg 88%
    18:00 0°C° 0.7 mm 10 mps 744 mmHg 81%
    19:00 +1°C° 0.7 mm 10 mps 744 mmHg 75%
    20:00 +1°C° 0.2 mm 10 mps 744 mmHg 75%
    21:00 +1°C° 0.2 mm 10 mps 745 mmHg 74%
    22:00 0°C° 0.2 mm 10 mps 745 mmHg 74%
    23:00 0°C° 0.1 mm 9 mps 745 mmHg 76%
    Show more